1276473634637,89.9062
1276473694637,90.0761
1276473754637,90.0729
1276473814637,90.0686
1276473874637,89.9824
1276473934637,89.9554
1276473994637,90.0009
1276474054637,89.9996
1276474114637,90.0255
1276474174637,89.9508
1276474234637,90.1919
1276474294637,89.7942
1276474354637,90.1299
1276474414637,89.9712
1276474474637,89.9773
1276474534637,90.1200
1276474594637,89.8412
1276474654637,90.1375
1276474714637,90.0436
1276474774637,89.9075
1276474834637,89.9471
1276474894637,89.9913
1276474954637,89.8816
1276475014637,89.9810
1276475074637,89.6278
1276475134637,89.8936
1276475194637,89.6968
1276475254637,89.5576
1276475314637,89.8164
1276475374637,89.7671
1276475434637,89.7572
1276475494637,89.6781
1276475554637,89.7578
1276475614637,89.7623
1276475674637,89.6311
1276475734637,89.5763
1276475794637,89.6341
1276475854637,89.6541
1276475914637,89.9004
1276475974637,89.6183
1276476034637,89.7325
1276476094637,89.5499
1276476154637,89.6223
1276476214637,89.4204
1276476274637,89.5660
1276476334637,89.6863
1276476394637,89.5009
1276476454637,89.9198
1276476514637,90.1179
1276476574637,90.3468
1276476634637,89.9740
1276476694637,90.0272
1276476754637,89.7010
1276476814637,89.7805
1276476874637,89.4390
1276476934637,89.3866
1276476994637,89.5584
1276477054637,89.5632
1276477114637,89.5086
1276477174637,89.4464
1276477234647,89.0144
1276477834647,88.9992
1276477894647,88.7927
1276477954647,89.0139
1276478014647,89.1080
1276478074647,88.8961
1276478134647,88.9205
1276478194647,88.8446
1276478254647,88.9585
1276478314647,89.1502
1276478374647,89.0070
1276478434647,89.0302
1276478494647,88.9533
1276478554647,89.0208
1276478614647,89.0000
1276478674647,89.1974
1276478734647,89.0493
1276478794647,89.0980
1276478854647,89.0433
1276478914647,89.2616
1276478974647,89.1535
1276479034647,89.2013
1276479094647,89.3200
1276479154647,88.9320
1276479214647,89.3116
1276479274647,89.0186
1276479334647,89.2265
1276479394647,89.1484
1276479454647,89.1393
1276479514647,89.2885
1276479574647,89.1670
1276479634647,88.9425
1276479694647,89.1798
1276479754647,88.9713
1276479814647,89.3842
1276479874647,89.0951
1276479934647,89.0061
1276479994647,89.1079
1276480054647,89.2029
1276480114647,89.1731
1276480174647,89.3144
1276480234647,89.0525
1276480294647,88.9895
1276480354647,89.2271
1276480414647,89.0495
1276480474647,89.1388
1276480534647,89.1610
1276480594647,89.1176
1276480654647,89.1294
1276480714647,89.1504
1276480774647,89.0409
1276480834656,88.9656
1276480894656,89.1941
1276480954656,89.2337
1276481014656,88.9672
1276481074656,89.1430
1276481134656,89.1839
1276481194656,88.8927
1276481254656,89.0780
1276481314656,89.1060
1276481374656,89.0919
1276481434656,89.1164
1276481494656,88.9984
1276481554656,89.2047
1276481614656,89.0264
1276481674656,89.1474
1276481734656,89.1160
1276481794656,89.1245
1276481854656,88.9109
1276481914656,89.0122
1276481974656,89.0321
1276482034656,89.0090
1276482094656,88.9058
1276482154656,88.9186
1276482214656,89.0562
1276482274656,89.1372
1276482334656,88.9409
1276482394656,89.0549
1276482454656,89.0035
1276482514656,89.1059
1276482574656,89.0415
1276482634656,89.3189
1276482694656,89.1826
1276482754656,89.1598
1276482814656,89.0426
1276482874656,89.0666
1276482934656,89.2624
1276482994656,88.9492
1276483054656,89.1710
1276483114656,89.1089
1276483174656,89.1181
1276483234656,89.3780
1276483294656,89.0707
1276483354656,89.0595
1276483414656,88.9918
1276483474656,89.2611
1276483534656,89.0751
1276483594656,89.1113
1276483654656,89.1851
1276483714656,89.2104
1276483774656,89.1122
1276483834656,89.0199
1276483894656,89.4328
1276483954656,89.0835
1276484014656,89.0154
1276484074656,88.9527
1276484134656,89.1239
1276484194656,89.0761
1276484254656,89.1501
1276484314656,89.2743
1276484374656,89.2944
1276484434665,89.1715
1276484494665,89.0527
1276484554665,89.3516
1276484614665,89.0762
1276484674665,89.0877
1276484734665,89.1716
1276484794665,89.1667
1276484854665,89.0338
1276484914665,89.0947
1276484974665,89.2051
1276485034665,89.0316
1276485094665,88.9677
1276485154665,88.9868
1276485214665,88.9759
1276485274665,89.0920
1276485334665,88.9715
1276485394665,88.8748
1276485454665,89.0992
1276485514665,88.9912
1276485574665,88.8027
1276485634665,89.1521
1276485694665,88.9227
1276485754665,88.8268
1276485814665,88.8704
1276485874665,88.9690
1276485934665,89.0192
1276485994665,89.1142
1276486054665,89.1308
1276486114665,89.2776
1276486174665,89.1102
1276486234665,89.0799
1276486294665,89.0553
1276486354665,89.0666
1276486414665,89.0063
1276486474665,89.2523
1276486534665,89.2498
1276486594665,89.2970
1276486654665,89.1875
1276486714665,89.1093
1276486774665,89.0514
1276486834665,89.0800
1276486894665,89.1011
1276486954665,88.9582
1276487014665,89.0332
1276487074665,89.4437
1276487134665,89.0257
1276487194665,89.3148
1276487254665,89.3165
1276487314665,89.2620
1276487374665,89.4229
1276487434665,89.3869
1276487494665,89.2871
1276487554665,89.3923
1276487614665,89.3763
1276487674665,89.6530
1276487734665,89.5208
1276487794665,89.4347
1276487854665,89.5618
1276487914665,89.5688
1276487974665,89.4849
1276488034674,89.5733
1276488094674,89.5155
1276488154674,89.4511
1276488214674,89.3714
1276488274674,89.6074
1276488334674,89.3246
1276488394674,89.4683
1276488454674,89.3963
1276488514674,89.4975
1276488574674,89.6522
1276488634674,89.5572
1276488694674,89.4733
1276488754674,89.5109
1276488814674,89.6865
1276488874674,89.5345
1276488934674,89.3990
1276488994674,89.5195
1276489054674,89.2915
1276489114674,89.7655
1276489174674,89.5540
1276489234674,89.6486
1276489294674,89.3287
1276489354674,89.5463
1276489414674,89.2215
1276489474674,89.6353
1276489534674,89.4905
1276489594674,89.4551
1276489654674,89.2932
1276489714674,89.4678
1276489774674,89.5063
1276489834674,89.3966
1276489894674,89.4172
1276489954674,89.3005
1276490014674,89.4976
1276490074674,89.3964
1276490134674,89.3306
1276490194674,89.3758
1276490254674,89.5474
1276490314674,89.3937
1276490374674,89.3324
1276490434674,89.3456
1276490494674,89.3956
1276490554674,89.3789
1276490614674,89.3518
1276490674674,89.1790
1276490734674,89.4307
1276490794674,89.2999
1276490854674,89.3083
1276490914674,89.5080
1276490974674,89.5404
1276491034674,89.3835
1276491094674,89.4651
1276491154674,89.4958
1276491214674,89.3714
1276491274674,89.2695
1276491334674,89.3934
1276491394674,89.4065
1276491454674,89.3514
1276491514674,89.4676
1276491574674,89.4399
1276491634682,89.3366
1276491694682,89.4081
1276491754682,89.5262
1276491814682,89.2776
1276491874682,89.3061
1276491934683,89.2494
1276491994683,89.3848
1276492054683,89.4453
1276492114682,89.2089
1276492174682,89.1929
1276492234682,89.2191
1276492294682,89.2590
1276492354682,89.2089
1276492414682,89.4245
1276492474682,89.2719
1276492534682,89.2884
1276492594682,89.1321
1276492654682,89.2497
1276492714682,89.3737
1276492774682,89.2336
1276492834682,89.2710
1276492894682,89.3733
1276492954682,89.1255
1276493014682,89.3014
1276493074682,89.1210
1276493134682,89.2482
1276493194682,89.0788
1276493254682,89.1102
1276493314683,89.1507
1276493374683,89.0821
1276493434683,89.0692
1276493494682,89.1311
1276493554682,89.2654
1276493614682,89.1320
1276493674682,89.1519
1276493734682,89.1125
1276493794682,89.2292
1276493854682,89.2661
1276493914682,89.2227
1276493974682,89.0602
1276494034682,89.2908
1276494094682,89.0443
1276494154682,89.0503
1276494214682,89.0875
1276494274682,89.1353
1276494334682,89.2071
1276494394682,89.1411
1276494454682,89.3277
1276494514682,89.0001
1276494574682,88.9745
1276494634683,89.1792
1276494694683,89.2219
1276494754683,89.2014
1276494814682,88.9989
1276494874682,89.1230
1276494934682,89.1255
1276494994682,89.0048
1276495054682,89.1456
1276495114682,89.2253
1276495174682,89.0656
1276495234691,88.9958
1276495294691,89.0472
1276495354691,89.1221
1276495414691,88.9896
1276495474691,89.1363
1276495534691,89.1826
1276495594691,88.8893
1276495654691,89.1745
1276495714691,88.8924
1276495774691,89.0218
1276495834691,89.0590
1276495894691,89.0914
1276495954691,89.0119
1276496014691,89.1726
1276496074691,89.0850
1276496134691,89.0169
1276496194691,88.9586
1276496254691,88.8664
1276496314691,88.9971
1276496374691,88.8466
1276496434691,88.9067
1276496494691,88.8244
1276496554691,89.0485
1276496614691,88.9850
1276496674691,89.0701
1276496734691,89.1072
1276496794691,89.1227
1276496854691,89.2008
1276496914691,89.0807
1276496974691,89.0129
1276497034691,89.0570
1276497094691,89.0519
1276497154691,89.1647
1276497214691,89.1617
1276497274691,89.0430
1276497334691,89.1463
1276497394691,89.3248
1276497454691,89.0950
1276497514691,89.1031
1276497574691,89.1127
1276497634691,89.1157
1276497694691,89.1488
1276497754691,89.2477
1276497814691,89.2305
1276497874691,89.3502
1276497934691,89.0525
1276497994691,89.1732
1276498054691,89.0377
1276498114691,89.3072
1276498174691,89.2338
1276498234691,89.0793
1276498294691,89.2985
1276498354691,89.1384
1276498414691,89.1589
1276498474691,89.1667
1276498534691,89.2122
1276498594691,89.3057
1276498654691,89.2252
1276498714691,89.3870
1276498774691,89.2862
1276498834700,89.1583
1276498894700,89.3023
1276498954700,89.2999
1276499014700,89.1860
1276499074700,89.2164
1276499134700,89.3131
1276499194700,89.1049
1276499254700,89.2902
1276499314700,89.2332
1276499374700,89.1754
1276499434700,89.2573
1276499494700,89.1872
1276499554700,89.0285
1276499614700,89.2506
1276499674700,89.2602
1276499734700,89.2740
1276499794700,89.1499
1276499854700,89.2429
1276499914700,89.1870
1276499974700,89.2372
1276500034700,89.2314
1276500094700,89.2034
1276500154700,89.4443
1276500214700,89.4018
1276500274700,89.3642
1276500334700,89.3635
1276500394700,89.2875
1276500454700,89.3039
1276500514700,89.4056
1276500574700,89.3169
1276500634700,89.3178
1276500694700,89.0820
1276500754700,89.1175
1276500814700,89.3527
1276500874700,89.2986
1276500934700,89.2542
1276500994700,89.2647
1276501054700,89.1507
1276501114700,89.2301
1276501174700,89.3378
1276501234700,89.2966
1276501294700,89.3860
1276501354700,89.4750
1276501414700,89.3581
1276501474700,89.1292
1276501534700,89.5300
1276501594700,89.6781
1276501654700,89.4674
1276501714700,89.6062
1276501774700,89.3091
1276501834700,89.5222
1276501894700,89.5265
1276501954700,89.3798
1276502014700,89.5485
1276502074700,89.4292
1276502134700,89.3415
1276502194700,89.3436
1276502254700,89.2653
1276502314700,89.4458
1276502374700,89.2616
1276502434708,89.4615
1276502494708,89.5187
1276502554708,89.4779
1276502614708,89.4051
1276502674708,89.4296
1276502734708,89.2428
1276502794708,89.3045
1276502854708,89.2580
1276502914708,89.4156
1276502974708,89.2861
1276503034708,89.5073
1276503094708,89.2084
1276503154708,89.3726
1276503214708,89.4053
1276503274708,89.6088
1276503334708,89.5136
1276503394708,89.3692
1276503454708,89.5891
1276503514708,89.2193
1276503574708,89.5198
1276503634708,89.2793
1276503694708,89.4243
1276503754708,89.5220
1276503814708,89.6381
1276503874708,89.5635
1276503934708,89.4213
1276503994708,89.5939
1276504054708,89.7543
1276504114708,89.4684
1276504174708,89.5462
1276504234708,89.8315
1276504294708,89.6007
1276504354708,89.6628
1276504414708,89.6991
1276504474708,89.5480
1276504534708,89.7812
1276504594708,89.4780
1276504654708,89.8354
1276504714708,89.5022
1276504774708,89.5919
1276504834708,89.4767
1276504894708,89.7096
1276504954708,89.7670
1276505014708,89.8451
1276505074708,89.6773
1276505134708,89.4933
1276505194708,89.4533
1276505254708,89.7107
1276505314708,89.5820
1276505374708,89.6884
1276505434708,89.7557
1276505494708,89.7891
1276505554708,89.4289
1276505614708,89.4920
1276505674708,89.7619
1276505734708,89.7323
1276505794708,89.3957
1276505854708,89.7444
1276505914708,89.4280
1276505974708,89.6872
1276506034716,89.6688
1276506094716,89.6025
1276506154717,89.5333
1276506214717,89.5432
1276506274716,89.5903
1276506334716,89.4408
1276506394716,89.4654
1276506454716,89.6066
1276506514716,89.3695
1276506574716,89.6334
1276506634716,89.5425
1276506694716,89.6381
1276506754716,89.5739
1276506814716,89.8002
1276506874716,89.3838
1276506934716,89.6900
1276506994716,89.7306
1276507054716,89.6531
1276507114716,89.4187
1276507174716,89.3644
1276507234716,89.6020
1276507294716,89.5330
1276507354716,89.6500
1276507414716,89.5867
1276507474716,89.4457
1276507534717,89.7375
1276507594716,89.4899
1276507654716,89.6743
1276507714716,89.5491
1276507774716,89.4603
1276507834716,89.6722
1276507894716,89.4253
1276507954716,89.5188
1276508014716,89.5201
1276508074716,89.5103
1276508134716,89.5207
1276508194716,89.4405
1276508254716,89.7854
1276508314716,89.6835
1276508374716,89.6665
1276508434716,89.5732
1276508494716,89.4670
1276508554716,89.5501
1276508614716,89.7410
1276508674716,89.4875
1276508734716,89.4760
1276508794716,89.3074
1276508854717,89.4212
1276508914717,89.5691
1276508974716,89.7027
1276509034716,89.6906
1276509094716,89.3939
1276509154716,89.5356
1276509214716,89.6739
1276509274716,89.4479
1276509334716,89.4912
1276509394716,89.5198
1276509454716,89.4847
1276509514716,89.4969
1276509574716,89.5392
1276509634725,89.5882
1276509694725,89.4456
1276509754725,89.5348
1276509814725,89.2364
1276509874725,89.5299
1276509934725,89.7430
1276509994725,89.4973
1276510054725,89.5501
1276510114725,89.4408
1276510174725,89.4938
1276510234725,89.4683
1276510294725,89.4858
1276510354725,89.4383
1276510414725,89.4618
1276510474725,89.2709
1276510534725,89.5300
1276510594725,89.3011
1276510654725,89.4791
1276510714725,89.5166
1276510774725,89.2815
1276510834725,89.3772
1276510894725,89.4295
1276510954725,89.2777
1276511014725,89.2035
1276511074725,89.2424
1276511134725,89.1744
1276511194725,89.3756
1276511254725,89.0739
1276511314725,89.2912
1276511374725,89.1374
1276511434725,89.2384
1276511494725,89.0667
1276511554725,89.1154
1276511614725,89.1199
1276511674725,89.1223
1276511734725,89.0413
1276511794725,89.0589
1276511854725,89.0271
1276511914725,89.0011
1276511974725,88.9708
1276512034725,89.2566
1276512094725,89.2313
1276512154725,89.2288
1276512214725,89.1030
1276512274725,89.1761
1276512334725,88.9375
1276512394725,89.1734
1276512454725,89.0358
1276512514725,89.1644
1276512574725,89.0772
1276512634725,89.0103
1276512694725,89.2749
1276512754725,89.0291
1276512814725,88.9162
1276512874725,88.9781
1276512934725,89.0785
1276512994725,89.1197
1276513054725,89.0883
1276513114725,89.0910
1276513174725,89.0618
1276513234733,88.7154
1276513294733,88.9058
1276513354733,88.8766
1276513414733,88.6362
1276513474733,88.9595
1276513534733,88.7542
1276513594733,88.8862
1276513654733,88.9458
1276513714733,88.9034
1276513774733,88.9960
1276513834733,88.9130
1276513894733,88.7872
1276513954733,88.9524
1276514014733,89.0190
1276514074733,89.0451
1276514134733,88.8614
1276514194733,89.1356
1276514254733,89.0671
1276514314733,88.9185
1276514374733,88.9134
1276514434733,88.8433
1276514494733,88.8784
1276514554733,88.8699
1276514614733,88.7443
1276514674733,88.9219
1276514734733,88.8238
1276514794733,88.7195
1276514854733,88.5967
1276514914733,88.4060
1276514974733,88.7317
1276515034733,88.4701
1276515094733,88.6808
1276515154733,88.6407
1276515214733,88.7523
1276515274733,88.6850
1276515334733,88.6070
1276515394733,88.6252
1276515454733,88.6851
1276515514733,88.4535
1276515574733,88.4432
1276515634733,88.7232
1276515694733,88.5872
1276515754733,88.5366
1276515814733,88.2940
1276515874733,88.4116
1276515934733,88.5420
1276515994733,88.4979
1276516054733,88.6398
1276516114733,88.7304
1276516174733,88.5740
1276516234733,88.6548
1276516294733,88.8867
1276516354733,88.6554
1276516414733,88.5888
1276516474733,88.7082
1276516534733,88.6437
1276516594733,88.6610
1276516654733,88.6013
1276516714733,88.5276
1276516774733,88.5195
1276516834742,88.6217
1276516894742,88.5457
1276516954742,88.8147
1276517014742,88.6284
1276517074742,88.8468
1276517134742,88.8094
1276517194742,88.5841
1276517254742,88.6903
1276517314742,88.7879
1276517374742,88.5984
1276517434742,88.6826
1276517494742,88.6857
1276517554742,88.6881
1276517614742,88.8344
1276517674742,88.6311
1276517734742,88.7905
1276517794742,88.9205
1276517854742,88.8135
1276517914742,88.6526
1276517974742,88.6415
1276518034742,88.6189
1276518094742,88.7795
1276518154742,88.7125
1276518214742,88.6140
1276518274742,88.6074
1276518334742,88.7334
1276518394742,88.6461
1276518454742,88.8331
1276518514742,88.7813
1276518574742,88.5775
1276518634742,88.7629
1276518694742,88.6197
1276518754742,88.8903
1276518814742,88.6509
1276518874742,88.6998
1276518934742,88.6742
1276518994742,88.5456
1276519054742,88.7000
1276519114742,88.6332
1276519174742,88.5202
1276519234742,88.5357
1276519294742,88.5091
1276519354742,88.6172
1276519414742,88.6523
1276519474742,88.7028
1276519534742,88.7232
1276519594742,88.8447
1276519654742,88.8484
1276519714742,88.7398
1276519774742,88.6043
1276519834742,88.6638
1276519894742,88.5503
1276519954742,88.6501
1276520014742,88.6046
1276520074742,88.3823
1276520134742,88.5338
1276520194742,88.5935
1276520254742,88.5502
1276520314742,88.4012
1276520374742,88.6904
1276520434750,88.6325
1276520494750,88.4083
1276520554750,88.5412
1276520614750,88.3519
1276520674750,88.4855
1276520734750,88.5532
1276520794750,88.5331
1276520854750,88.5710
1276520914750,88.5425
1276520974750,88.3899
1276521034750,88.5350
1276521094750,88.6881
1276521154750,88.7416
1276521214750,88.6229
1276521274750,88.6194
1276521334750,88.6807
1276521394750,88.7765
1276521454750,88.7762
1276521514750,88.6255
1276521574750,88.8833
1276521634750,88.8329
1276521694750,88.8409
1276521754750,88.8015
1276521814750,88.8562
1276521874750,88.8705
1276521934750,88.8735
1276521994750,88.8229
1276522054750,88.8636
1276522114750,88.7436
1276522174750,88.9724
1276522234750,88.9031
1276522294750,88.9496
1276522354750,88.7595
1276522414750,88.8193
1276522474750,88.8171
1276522534750,88.7486
1276522594750,88.9720
1276522654750,88.9065
1276522714750,88.9001
1276522774750,88.7803
1276522834750,88.9950
1276522894750,89.0670
1276522954750,89.0182
1276523014750,89.1301
1276523074750,89.0850
1276523134750,89.0569
1276523194750,88.9078
1276523254750,89.0297
1276523314750,89.1428
1276523374750,89.1526
1276523434750,88.9816
1276523494750,88.9549
1276523554750,88.8850
1276523614750,89.2600
1276523674750,89.0927
1276523734750,89.2153
1276523794750,89.1831
1276523854750,89.2220
1276523914750,89.0738
1276523974750,89.2293
1276524034758,89.0320
1276524094758,89.2744
1276524154758,89.0998
1276524214758,89.2275
1276524274758,89.0177
1276524334758,89.3316
1276524394758,89.4099
1276524454758,89.2261
1276524514758,89.2447
1276524574758,89.2579
1276524634758,89.3179
1276524694758,89.3233
1276524754758,89.1758
1276524814758,89.2948
1276524874758,89.2005
1276524934758,89.2764
1276524994758,89.3548
1276525054758,89.2653
1276525114758,89.3358
1276525174758,89.2065
1276525234758,89.4732
1276525294758,89.6349
1276525354758,89.4578
1276525414758,89.2884
1276525474758,89.5641
1276525534758,89.5221
1276525594758,89.4700
1276525654758,89.5422
1276525714758,89.6240
1276525774758,89.2019
1276525834758,89.4431
1276525894758,89.5787
1276525954758,89.5248
1276526014758,89.4631
1276526074758,89.5123
1276526134758,89.4882
1276526194758,89.4490
1276526254758,89.3343
1276526314758,89.5708
1276526374758,89.3125
1276526434758,89.2463
1276526494758,89.6431
1276526554758,89.5999
1276526614758,89.3445
1276526674758,89.5392
1276526734758,89.4779
1276526794758,89.6544
1276526854758,89.5572
1276526914758,89.5834
1276526974758,89.6608
1276527034758,89.5622
1276527094758,89.5454
1276527154758,89.4082
1276527214758,89.3956
1276527274758,89.3023
1276527334758,89.3888
1276527394758,89.3963
1276527454758,89.5185
1276527514758,89.3434
1276527574758,89.2169
1276527634767,89.4269
1276527694767,89.5140
1276527754767,89.3908
1276527814767,89.4403
1276527874767,89.4845
1276527934767,89.3527
1276527994767,89.4548
1276528054767,89.3209
1276528114767,89.3948
1276528174767,89.3027
1276528234767,89.3444
1276528294767,89.2940
1276528354767,89.1501
1276528414767,89.3718
1276528474767,89.1048
1276528534767,89.2862
1276528594767,89.1325
1276528654767,89.2069
1276528714767,89.3218
1276528774767,89.0341
1276528834767,89.1543
1276528894767,89.0874
1276528954767,89.1936
1276529014767,89.1338
1276529074767,89.1214
1276529134767,89.1989
1276529194767,89.2006
1276529254767,89.0626
1276529314767,88.8734
1276529374767,89.1200
1276529434767,89.2050
1276529494767,89.1884
1276529554767,89.1308
1276529614767,89.0651
1276529674767,89.1574
1276529734767,88.8237
1276529794767,89.2344
1276529854767,89.0779
1276529914767,89.0549
1276529974767,88.8666
1276530034767,89.1198
1276530094767,89.1775
1276530154767,89.2261
1276530214767,89.0176
1276530274767,88.7641
1276530334767,89.1053
1276530394767,89.0116
1276530454767,88.8558
1276530514767,88.6948
1276530574767,88.9887
1276530634767,88.9410
1276530694767,88.9583
1276530754767,88.7846
1276530814767,88.9461
1276530874767,89.0399
1276530934767,89.0419
1276530994767,88.9977
1276531054767,88.8443
1276531114767,88.8745
1276531174767,88.7987
1276531234776,88.8979
1276531294776,88.7977
1276531354776,88.9542
1276531414776,88.7151
1276531474776,89.0191
1276531534776,88.9519
1276531594776,88.7492
1276531654776,88.9703
1276531714776,89.1346
1276531774776,88.8479
1276531834776,88.9408
1276531894776,89.0417
1276531954776,88.8176
1276532014776,88.8842
1276532074776,88.9623
1276532134776,88.9319
1276532194776,89.0319
1276532254776,88.9468
1276532314776,89.0481
1276532374776,89.0254
1276532434776,88.9207
1276532494776,88.6576
1276532554776,88.9543
1276532614776,88.8763
1276532674776,89.1475
1276532734776,88.9456
1276532794776,88.8514
1276532854776,89.1441
1276532914776,88.9657
1276532974776,88.9456
1276533034776,88.9126
1276533094776,89.0759
1276533154776,89.0732
1276533214776,88.8711
1276533274776,89.1039
1276533334776,89.0251
1276533394776,89.1721
1276533454776,89.1088
1276533514776,88.9875
1276533574776,89.3286
1276533634776,89.0760
1276533694776,89.2931
1276533754776,89.1732
1276533814776,89.1813
1276533874776,88.9986
1276533934776,89.1894
1276533994776,89.1875
1276534054776,89.2199
1276534114776,89.3240
1276534174776,89.4707
1276534234776,89.1393
1276534294776,89.3052
1276534354776,89.2467
1276534414776,89.2866
1276534474776,89.3715
1276534534776,89.2505
1276534594776,89.2495
1276534654776,89.0847
1276534714776,89.0762
1276534774776,89.2733
1276534834785,89.3021
1276534894785,89.0840
1276534954785,89.2465
1276535014785,88.9798
1276535074785,89.1821
1276535134785,88.8802
1276535194785,89.0679
1276535254785,89.1745
1276535314785,89.1368
1276535374785,89.0016
1276535434785,88.9429
1276535494785,89.0268
1276535554785,89.0197
1276535614785,89.0994
1276535674785,88.8420
1276535734785,89.0584
1276535794785,89.1783
1276535854785,89.0188
1276535914785,88.8967
1276535974785,89.0101
1276536034785,88.9649
1276536094785,89.1456
1276536154785,88.9013
1276536214785,89.0603
1276536274785,88.7826
1276536334785,88.8446
1276536394785,88.9646
1276536454785,88.7536
1276536514785,88.6142
1276536574785,88.9017
1276536634785,88.7958
1276536694785,88.9099
1276536754785,88.5562
1276536814785,88.8637
1276536874785,88.7676
1276536934785,88.7125
1276536994785,88.6901
1276537054785,88.7552
1276537114785,88.5506
1276537174785,88.6969
1276537234785,88.5731
1276537294785,88.6412
1276537354785,88.6071
1276537414785,88.7128
1276537474785,88.7471
1276537534785,88.7853
1276537594785,88.5523
1276537654785,88.4457
1276537714785,88.5344
1276537774785,88.5239
1276537834785,88.4628
1276537894785,88.4910
1276537954785,88.5343
1276538014785,88.5357
1276538074785,88.5930
1276538134785,88.3860
1276538194785,88.6761
1276538254785,88.6148
1276538314785,88.5370
1276538374785,88.6006
1276538434794,88.5636
1276538494794,88.6123
1276538554794,88.7565
1276538614794,88.7244
1276538674794,88.6365
1276538734794,88.6764
1276538794794,88.5498
1276538854794,88.5396
1276538914794,88.6016
1276538974794,88.7752
1276539034794,88.5590
1276539094794,88.8720
1276539154794,88.4982
1276539214794,88.6012
1276539274794,88.7671
1276539334794,88.7441
1276539394794,88.6432
1276539454794,88.5709
1276539514794,88.5680